Location: Benalto
(52.3088°N, 114.2787°W)
Time: 11:17:22
(UTC+00:00)

N. Korean satellite - Pass Details

Date: 02 December 2021
Orbit: 447 x 490 km, 97.3° (Epoch: 27 January)

Event Time Altitude Azimuth Distance (km) Brightness Sun altitude
Rises 13:35:02 0° 7° (N) 2,482 10.1 -16.0°
Reaches altitude 10° 13:37:09 10° 0° (N) 1,598 9.0 -15.7°
Maximum altitude 13:40:22 40° 290° (WNW) 683 6.8 -15.2°
Drops below altitude 10° 13:43:33 10° 220° (SW) 1,575 8.9 -14.8°
Sets 13:45:37 0° 213° (SSW) 2,441 10.0 -14.5°
